Regional Weather Roundup
Issued by NWS

Home | Current Version | Previous Version | Graphics & Text | Print | Product List | Glossary On
Versions: 1 2 3 4 5 6 7 8 9 10 11 12 13 14 15 16 17 18 19 20 21 22 23 24 25 26 27 28 29 30 31 32 33 34 35 36 37 38 39 40 41 42 43 44 45 46 47 48 49 50
000
ASUS43 KDMX 271407
RWRIA

WEATHER ROUNDUP FOR IOWA
NATIONAL WEATHER SERVICE DES MOINES IA
800 AM CST TUE JAN 27 2015

NOTE: "FAIR" INDICATES FEW OR NO CLOUDS BELOW 12,000 FEET WITH NO
SIGNIFICANT WEATHER AND/OR OBSTRUCTIONS TO VISIBILITY.

* - THESE STATIONS ARE NOT NWS STATIONS...THUS NOT UNDER NWS
QUALITY CONTROL.  THEY ALSO DO NOT REPORT WEATHER SUCH
AS PRECIPITATION OR FOG.

IAZ001>003-012>014-020>022-031>034-043>046-271500-
   NORTHWEST IOWA

CITY           SKY/WX    TMP DP  RH WIND       PRES   REMARKS
CARROLL *      CLEAR     27  27 100 NW5       30.13R WCI  21
CHEROKEE *     CLOUDY    30  30 100 NE3       30.13R FOG
DENISON *      FOG       25  25 100 CALM      30.11R VSB 0
LE MARS *      FOG       30  30 100 E5        30.12R VSB 0   WCI  25
ORANGE CITY *  FOG       30  30 100 CALM      30.10S VSB 1/2
SHELDON *      CLOUDY    30  30 100 E8        30.10R FOG     WCI  23
SIOUX CITY     CLEAR     26  24  92 E6        30.11S WCI  19
SPENCER        FOG       30  28  92 CALM      30.13R VSB 1
STORM LAKE *   FOG       28  28 100 CALM      30.12R VSB 0
$$

IAZ055>058-069>071-079>083-090>094-271500-
   SOUTHWEST IOWA

CITY           SKY/WX    TMP DP  RH WIND       PRES   REMARKS
ATLANTIC *     CLEAR     25  25 100 CALM      30.13R
AUDUBON *      CLEAR     25  21  86 CALM      30.13R
CLARINDA *     CLEAR     23  23 100 CALM      30.16R
COUNCIL BLFS * CLEAR     30  32 100 CALM      30.11R FOG
CRESTON *      CLEAR     30  30 100 CALM      30.13R
HARLAN  *      PTCLDY    23  23 100 CALM      30.16R
LAMONI         CLEAR     29  28  96 N5        30.12R WCI  24
RED OAK *      CLEAR     21  21 100 CALM      30.14R
SHENANDOAH *   CLEAR     23  21  93 CALM      30.15R
$$

IAZ047>049-059>061-072>074-084-271500-
   CENTRAL IOWA

CITY           SKY/WX    TMP DP  RH WIND       PRES   REMARKS
AMES           CLEAR     29  27  92 NW6       30.13R WCI  23
ANKENY *       CLEAR     28  28 100 CALM      30.13R
CHARITON *     CLEAR     28  28 100 W5        30.12R WCI  23
DES MOINES     PTCLDY    30  27  88 NW3       30.14R
GRINNELL*      CLEAR     30  28  93 N6        30.12R WCI  24
KNOXVILLE *    CLEAR     30  28  93 CALM      30.11R
MARSHALLTOWN   CLEAR     28  26  92 N8        30.11R WCI  20
PELLA *        CLEAR     28  27  93 N5        30.14R WCI  23
PERRY *          N/A     28  28 100 N5        30.12R WCI  23
$$

IAZ004>006-015-016-023>025-035-036-271500-
   NORTH CENTRAL IOWA

CITY           SKY/WX    TMP DP  RH WIND       PRES   REMARKS
ALGONA *       CLEAR     30  30 100 NE3       30.12R
CLARION *      CLEAR     30  30 100 N3        30.12R
ESTHERVILLE    FOG       27  27 100 N5        30.11R VSB 1/4 WCI  22
FORT DODGE *     N/A     27  23  86 CALM      30.13R VSB 3/4
MASON CITY     CLOUDY    32  29  88 NE10      30.12R WCI  24
FOREST CITY *  CLOUDY    32  30  93 N3        30.11R
IOWA FALLS *     N/A     30  28  93 NE3       30.12R
$$

IAZ007>011-017>019-026>030-037>042-050>054-066-271500-
   NORTHEAST IOWA

CITY           SKY/WX    TMP DP  RH WIND       PRES   REMARKS
CEDAR RAPIDS   CLOUDY    33  29  85 N8        30.11R WCI  26
CHARLES CITY * CLOUDY    34  32  93 NE8       30.12R WCI  27
CLINTON *      MOCLDY    27  19  74 N14       30.13R WCI  15
DECORAH *      CLOUDY    28  27  93 NE3       30.11R
DUBUQUE        CLOUDY    28  22  78 N16       30.09R WCI  16
MONTICELLO *   CLOUDY    30  27  86 VRB6G15   30.12R WCI  24
OELWEIN *      CLOUDY    32  28  86 NE8       30.12R WCI  25
WATERLOO       CLOUDY    32  31  96 CALM      30.12R
$$

IAZ064-065-067-068-078-271500-
   EAST CENTRAL IOWA

CITY           SKY/WX    TMP DP  RH WIND       PRES   REMARKS
DAVENPORT      CLOUDY    29  23  78 N16       30.11R WCI  17
IOWA CITY      CLOUDY    33  30  88 N5        30.14R WCI  29
MT. PLEASANT * CLEAR     32  30  93 NW5       30.12R WCI  27
MUSCATINE *    CLOUDY    34  28  80 N10       30.13R WCI  26
QUAD CITIES    CLOUDY    30  24  78 N10G20    30.11R WCI  21
$$

IAZ062-063-075>077-085>089-095>099-271500-
   SOUTHEAST IOWA

CITY           SKY/WX    TMP DP  RH WIND       PRES   REMARKS
BURLINGTON     CLEAR     34  31  88 N6        30.10R WCI  29
FAIRFIELD *    CLEAR     28  27  93 N7        30.11R WCI  21
FORT MADISON * CLEAR     36  34  93 NW5       30.11R WCI  32
KEOKUK *       MOCLDY    36  32  87 NW5       30.11R WCI  32
OSKALOOSA *      N/A     28  28 100 N5        30.12R WCI  23
CENTERVILLE *  CLEAR     30  30 100 NW6       30.13R WCI  24
OTTUMWA        CLEAR     27  26  96 N6        30.12R WCI  20
WASHINGTON *   CLEAR     32  32 100 N7        30.11R WCI  26
$$

ABBREVIATIONS USED IN REMARKS
   TC - TEMPERATURES IN CELSIUS
  WCI - WIND CHILL INDEX
   HX - HEAT INDEX
  VSB - VISIBILITY
$$




USA.gov is the U.S. government's official web portal to all federal, state and local government web resources and services.